Home   Weather   Woodinville   Past weeks
Flag for USA

Past Weather in Woodinville, Washington, USA — Yesterday and Last 2 Weeks

Now
49 °F

Low clouds.


Feels Like: 45 °F
Forecast: 57 / 50 °F
Wind: 10 mph from South

Location: Snohomish County Airport

Current Time: Oct 21, 2019 at 3:55:38 am

Latest Report: Oct 21, 2019 at 3:22 am


Visibility: 7 mi

Pressure: 30.12 "Hg

Humidity: 97%

Dew Point: 48 °F

Location of WoodinvilleLocation

Past Weather in Woodinville — Graph

°F

Woodinville Temperature Yesterday

Maximum temperature yesterday: 51 °F (at 6:53 pm)
Minimum temperature yesterday: 45 °F (at 12:53 am)
Average temperature yesterday: 48 °F

High & Low Weather Summary for the Past Weeks

 TemperatureHumidityPressure
High61 °F (Oct 7, 12:53 pm)100% (Oct 9, 3:05 am)30.48 "Hg (Oct 9, 3:05 am)
Low34 °F (Oct 9, 7:53 am)33% (Oct 11, 3:53 pm)29.61 "Hg (Oct 17, 6:53 pm)
Average49 °F80%30.01 "Hg
* Reported Oct 6 1:53 am — Oct 21 1:53 am, Woodinville. Weather by CustomWeather, © 2019

Note: Actual official high and low records may vary slightly from our data, if they occured in-between our weather recording intervals... More about our weather records

Advertising

Woodinville Weather History for the Previous 24 Hours

Scroll right to see more
 ConditionsComfort  
Time TempWeatherWind HumidityBarometerVisibility
1:53 am
Mon, Oct 21
50 °FMostly cloudy.3 mph93%30.13 "Hg8 mi
12:53 am49 °FMostly cloudy.5 mph97%30.12 "Hg8 mi
11:53 pm
Sun, Oct 20
49 °FMostly cloudy.10 mph93%30.09 "Hg10 mi
10:53 pm48 °FMostly cloudy.6 mph93%30.08 "Hg10 mi
9:53 pm49 °FOvercast.7 mph90%30.06 "Hg10 mi
8:53 pm49 °FPassing clouds.No wind90%30.02 "Hg10 mi
7:53 pm50 °FPassing clouds.No wind80%29.98 "Hg10 mi
6:53 pm51 °FOvercast.5 mph83%29.96 "Hg10 mi
6:10 pm50 °FLow clouds.3 mph93%29.95 "Hg10 mi
5:56 pm49 °FLight rain. Fog.6 mph97%29.94 "Hg2 mi
4:53 pm49 °FMostly cloudy.9 mph93%29.92 "Hg8 mi
3:53 pm49 °FLow clouds.12 mph90%29.89 "Hg8 mi
2:53 pm49 °FLight rain. Fog.17 mph90%29.89 "Hg3 mi
1:53 pm48 °FFog.9 mph93%29.91 "Hg5 mi
12:59 pm48 °FLight rain. Fog.10 mph86%29.94 "Hg1 mi
12:43 pm49 °FLight rain. Mostly cloudy.13 mph80%29.95 "Hg6 mi
11:53 am48 °FMostly cloudy.10 mph83%29.98 "Hg10 mi
10:56 am47 °FMostly cloudy.9 mph86%29.99 "Hg10 mi
9:53 am47 °FLight rain. Mostly cloudy.6 mph86%30.01 "Hg10 mi
9:02 am47 °FLight rain. Mostly cloudy.7 mph86%30.02 "Hg8 mi
7:53 am46 °FOvercast.6 mph89%30.03 "Hg10 mi
6:53 am46 °FMostly cloudy.9 mph89%30.04 "Hg10 mi
6:26 am46 °FPartly cloudy.10 mph89%30.04 "Hg10 mi
5:53 am46 °FPassing clouds.9 mph89%30.06 "Hg10 mi
5:01 am46 °FLight fog.5 mph93%30.06 "Hg10 mi
3:53 am45 °FOvercast.3 mph93%30.05 "Hg10 mi
3:27 am45 °FOvercast.7 mph93%30.05 "Hg10 mi
Weather by CustomWeather, © 2019

See weather overview